Station 41009 (LLNR 840) - CANAVERAL 20 NM East of Cape Canaveral, FL Image indicating link to RSS feed of recent meteorological observations for station 41009


Conditions at 41009 as of
(6:10 pm EDT)
2210 GMT on 05/27/2024:
     

Click on the graph icon in the table below to see a time series plot of the last five days of that observation.

5-day plot - Wind Direction Wind Direction (WDIR): E ( 100 deg true )
5-day plot - Wind Speed Wind Speed (WSPD): 7.8 kts
5-day plot - Wind Gust Wind Gust (GST): 9.7 kts
5-day plot - Wave Height Wave Height (WVHT): 1.3 ft
5-day plot - Average Wave Period Average Period (APD): 4.3 sec
5-day plot - Mean Wave Direction Mean Wave Direction (MWD): E ( 93 deg true )
5-day plot - Atmospheric Pressure Atmospheric Pressure (PRES):29.96 in
5-day plot - Air Temperature Air Temperature (ATMP): 82.6 °F
5-day plot - Water Temperature Water Temperature (WTMP): 82.0 °F
5-day plot - Dew Point Dew Point (DEWP): 77.0 °F
5-day plot - Heat Index Heat Index (HEAT): 91.2 °F
5-day plot - Wind Speed at 10 Meters Wind Speed at 10 meters (WSPD10M): 9.7 kts
5-day plot - Wind Speed at 20 Meters Wind Speed at 20 meters (WSPD20M): 9.7 kts
5-day plot -  Wind Speed, Wind Gust and Atmospheric Pressure Combined plot of Wind Speed, Gust, and Air Pressure
Supplemental Measurements
Highest 1-minute Wind Speed
Time (EDT)5-day plot - 1-Minute Wind Speed WSPD 5-day plot - 1-Minute Wind Direction WDIR
6:01 pm 7.8 kts-
Previous observations
TIME
(EDT)
5-day plot - Wind Direction
WDIR
 
5-day plot - Wind Speed
WSPD
kts
5-day plot - Wind Gust
GST
kts
5-day plot - Wave Height
WVHT
ft
5-day plot - Dominant Wave Period
DPD
sec
5-day plot - Average Wave Period
APD
sec
5-day plot - Mean Wave Direction
MWD
 
5-day plot - Atmospheric Pressure
PRES
in
5-day plot - Pressure Tendency
PTDY
in
5-day plot - Air Temperature
ATMP
°F
5-day plot - Water Temperature
WTMP
°F
5-day plot - Dew Point
DEWP
°F
5-day plot - Salinity
SAL
psu
5-day plot - Visibility
VIS
nmi
5-day plot - Tide (above MLLW)
TIDE
ft
2024-05-27 06:00 pm E 7.8 9.7----29.96-0.04 82.8 82.4 77.0---
2024-05-27 05:50 pm E 7.8 9.7 1.3 84.4 E29.96- 82.6 82.4 76.8---
2024-05-27 05:40 pm E 7.8 9.7----29.96- 82.6 82.4 77.0---
2024-05-27 05:30 pm E 7.8 7.8----29.97- 82.6 82.4 77.0---
2024-05-27 05:20 pm E 7.8 9.7 1.3 84.1 E29.97- 82.2 81.9 76.5---
2024-05-27 05:10 pmENE 7.8 9.7 1.3-4.1 E29.97- 82.0 81.9 76.3---
2024-05-27 05:00 pmENE 7.8 9.7----29.96-0.06 81.9 81.9 76.3---
2024-05-27 04:50 pmENE 7.8 9.7 1.3 84.1ENE29.97- 81.7 82.0 76.3---
2024-05-27 04:40 pm NE 7.8 9.7----29.97- 81.5 81.9 76.1---
2024-05-27 04:30 pm NE 7.8 9.7----29.97- 81.7 81.9 76.3---
2024-05-27 04:20 pm NE 7.8 9.7 1.3 84.1 E29.98- 81.5 81.9 75.9---
2024-05-27 04:10 pm NE 7.8 9.7 1.3-4.1 E29.98- 81.5 81.9 75.9---
2024-05-27 04:00 pm NE 7.8 9.7----29.98-0.06 81.5 81.7 75.7---
2024-05-27 03:50 pm NE 7.8 9.7 1.3 84.2ENE29.98- 81.5 82.0 75.6---
2024-05-27 03:40 pm NE 5.8 7.8----29.99- 81.5 81.9 75.6---
2024-05-27 03:30 pm NE 5.8 7.8----29.99- 81.3 81.7 75.0---
2024-05-27 03:20 pm NE 5.8 7.8 1.3 84.0ESE29.99- 81.3 81.9 75.0---
2024-05-27 03:10 pm NE 5.8 7.8 1.3-4.0ESE29.99- 81.1 82.0 74.8---
2024-05-27 03:00 pm NE 5.8 5.8----30.00-0.04 81.1 81.9 75.0---
2024-05-27 02:50 pm NE 5.8 5.8 1.3-3.8 E30.00- 81.0 81.9 74.7---
2024-05-27 02:40 pm--- 1.3 83.8 E--------
2024-05-27 02:30 pm NE 5.8 5.8----30.01- 80.8 82.0 74.7---
2024-05-27 02:20 pmNNE 5.8 7.8 1.6 83.8ESE30.01- 80.6 82.0 74.5---
2024-05-27 02:10 pm N 7.8 7.8 1.6-3.8ESE30.02- 80.6 81.9 74.3---
2024-05-27 02:00 pm N 7.8 9.7----30.02+0.00 80.4 81.9 74.3---
2024-05-27 01:50 pm N 7.8 9.7 1.3 83.6 E30.02- 80.4 81.9 74.5---
2024-05-27 01:40 pm N 9.7 9.7----30.03- 80.2 81.7 74.5---
2024-05-27 01:30 pm N 9.7 9.7----30.03- 80.2 81.5 74.5---
2024-05-27 01:20 pm N 9.7 9.7 1.3 83.7ENE30.03- 80.2 81.5 74.8---
2024-05-27 01:10 pmNNW 9.7 11.7 1.3-3.7ENE30.04- 80.2 81.5 74.8---
2024-05-27 01:00 pmNNW 9.7 11.7----30.04+0.04 80.1 81.3 74.7---
2024-05-27 12:50 pmNNW 9.7 11.7 1.3 93.5 E30.04- 80.1 81.3 74.7---
2024-05-27 12:40 pmNNW 9.7 9.7----30.04- 80.2 81.3 74.8---
2024-05-27 12:30 pmNNW 9.7 9.7----30.04- 80.1 81.3 74.3---
2024-05-27 12:20 pm NW 9.7 11.7 1.3 83.6 E30.04- 80.1 81.1 74.7---
2024-05-27 12:10 pm NW 9.7 11.7 1.3-3.6 E30.04- 80.1 81.1 74.7---
2024-05-27 12:00 pm NW 9.7 11.7----30.04+0.06 80.2 81.1 74.7---
2024-05-27 11:50 am NW 9.7 11.7 1.3 84.1 E30.04- 80.1 81.1 74.5---
2024-05-27 11:40 am NW 9.7 11.7 1.3-4.1 E30.04- 79.9- 74.5---
2024-05-27 11:30 amWNW 9.7 11.7----30.04- 79.9 81.1 74.8---
2024-05-27 11:20 amWNW 9.7 11.7 1.3 94.2 E30.03- 79.7 81.1 74.8---
2024-05-27 11:10 amWNW 9.7 11.7 1.3-4.2 E30.03- 79.7 81.1 75.0---
2024-05-27 11:00 amWNW 9.7 9.7----30.02+0.05 79.5 81.1 75.0---
2024-05-27 10:50 amWNW 9.7 11.7 1.6 84.3 E30.02- 79.0 81.1 75.2---
2024-05-27 10:40 am W 9.7 11.7----30.02- 79.2 81.1 76.3---
2024-05-27 10:30 am W 9.7 11.7----30.01- 79.2 81.0 76.5---
2024-05-27 10:20 am W 11.7 13.6 1.6 84.0 E30.01- 79.3 81.0 76.8---
2024-05-27 10:10 am W 9.7 11.7 1.6-4.0 E30.00- 79.5 81.0 76.8---
2024-05-27 10:00 am W 9.7 11.7----30.00+0.04 79.5 81.0 76.6---
2024-05-27 09:50 am W 7.8 9.7 1.6 33.9ESE29.99- 79.7 81.0 76.6---
2024-05-27 09:40 amWSW 7.8 7.8----29.99- 79.9 81.0 76.5---
2024-05-27 09:30 amWSW 7.8 9.7----29.99- 79.7 80.8 76.3---
2024-05-27 09:20 amWSW 7.8 7.8 1.6 84.0ENE29.99- 79.0 80.8 75.6---
2024-05-27 09:10 am SW 7.8 7.8 1.6-4.0ENE29.98- 79.9 80.8 77.2---
2024-05-27 09:00 am SW 7.8 9.7----29.98+0.04 80.1 80.8 77.2---
2024-05-27 08:50 am SW 7.8 9.7 1.6 93.9 SE29.97- 80.1 80.8 76.8---
2024-05-27 08:40 am SW 9.7 9.7----29.97- 80.4 80.8 76.8---
2024-05-27 08:30 amSSW 7.8 9.7----29.97- 80.2 80.8 76.6---
2024-05-27 08:20 am S 7.8 9.7 1.6 83.9 E29.97- 80.1 80.8 76.8---
2024-05-27 08:10 am S 7.8 9.7 1.6-3.9 E29.97- 79.9 80.8 77.2---
2024-05-27 08:00 am S 5.8 7.8----29.97+0.04 80.1 80.8 77.9---
2024-05-27 07:50 am S 5.8 7.8 1.6 84.0ENE29.96- 80.2 80.8 78.4---
2024-05-27 07:40 am S 5.8 7.8----29.96- 80.1 80.8 78.3---
2024-05-27 07:30 am S 5.8 7.8----29.96- 80.2 80.8 78.6---
2024-05-27 07:20 am S 5.8 7.8 1.6 144.1 NW29.96- 80.2 80.8 78.6---
2024-05-27 07:10 am S 5.8 7.8 1.6-4.1 NW29.96- 80.4 80.8 79.0---
2024-05-27 07:00 am S 5.8 7.8----29.96+0.02 80.4 80.8 78.8---
2024-05-27 06:50 am S 5.8 7.8 1.6 84.0ENE29.96- 80.4 80.8 78.8---
2024-05-27 06:40 am S 5.8 7.8----29.95- 80.6 81.0 79.0---
2024-05-27 06:30 amSSW 5.8 7.8----29.95- 80.6 81.0 78.8---
2024-05-27 06:20 amSSW 7.8 9.7 2.0 34.0 SE29.95- 80.6 81.0 78.6---
2024-05-27 06:10 amSSW 7.8 9.7 2.0-4.0 SE29.94- 80.8 81.0 78.8---
2024-05-27 06:00 am S 7.8 7.8----29.94+0.01 81.0 81.0 79.0---
2024-05-27 05:50 am S 7.8 7.8 2.0 84.0 E29.94- 81.0 81.0 78.8---
2024-05-27 05:40 am S 7.8 9.7----29.93- 81.0 81.0 78.8---
2024-05-27 05:30 am S 7.8 7.8----29.93- 81.0 81.1 79.0---
2024-05-27 05:20 am S 7.8 7.8 2.0 83.9 E29.93- 81.1 81.1 79.0---
2024-05-27 05:10 am S 5.8 7.8 2.0-3.9 E29.93- 81.1 81.1 79.0---
2024-05-27 05:00 am S 7.8 7.8----29.93-0.02 81.1 81.1 78.8---
2024-05-27 04:50 am S 5.8 7.8 2.0 44.0 SE29.93- 81.3 81.3 79.0---
2024-05-27 04:40 am S 5.8 7.8----29.93- 81.3 81.3 78.8---
2024-05-27 04:30 am S 5.8 7.8----29.93- 81.3 81.3 78.8---
2024-05-27 04:20 am S 5.8 7.8 2.0 43.9 SE29.93- 81.5 81.3 78.8---
2024-05-27 04:10 am S 5.8 7.8 2.0-3.9 SE29.93- 81.7 81.5 78.8---
2024-05-27 04:00 am S 5.8 7.8----29.93-0.03 81.9 81.5 78.8---
2024-05-27 03:50 am S 7.8 9.7 2.0 43.8SSE29.93- 81.9 81.5 78.4---
2024-05-27 03:40 am S 7.8 9.7----29.94- 82.0 81.5 78.4---
2024-05-27 03:30 am S 9.7 11.7----29.93- 82.0 81.5 78.3---
2024-05-27 03:20 am S 9.7 11.7 2.3 33.8 SE29.93- 82.2 81.7 78.1---
2024-05-27 03:10 am S 9.7 11.7 2.3-3.8 SE29.93- 82.0 81.7 77.9---
2024-05-27 03:00 am S 9.7 13.6----29.93-0.04 82.2 81.9 77.9---
2024-05-27 02:50 am S 11.7 13.6 2.3 33.5 SE29.93- 82.2 82.0 77.9---
2024-05-27 02:40 am S 11.7 13.6----29.93- 82.4 82.0 78.1---
2024-05-27 02:30 am S 11.7 15.5----29.94- 82.4 82.2 78.1---
2024-05-27 02:20 am S 13.6 15.5 2.3 33.5SSE29.94- 82.4 82.2 77.9---
2024-05-27 02:10 am S 13.6 15.5 2.3-3.5SSE29.95- 82.4 82.4 78.1---
2024-05-27 02:00 am S 13.6 17.5----29.95-0.02 82.2 82.4 78.1---
2024-05-27 01:50 am S 13.6 17.5 2.3 33.5SSE29.95- 82.4 82.6 78.3---
2024-05-27 01:40 am S 13.6 17.5----29.95- 82.6 82.6 78.3---
2024-05-27 01:30 am S 13.6 17.5----29.96- 82.6 82.6 78.1---
2024-05-27 01:20 am S 15.5 17.5 2.0 33.3 SE29.96- 82.8 82.8 78.1---
2024-05-27 01:10 am S 15.5 17.5 2.0-3.3 SE29.96- 82.6 82.8 77.7---
2024-05-27 01:00 amSSE 13.6 17.5----29.96+0.00 82.8 82.8 77.9---
2024-05-27 12:50 amSSE 15.5 17.5 2.0 33.3 SE29.96- 82.9 82.9 77.5---
2024-05-27 12:40 amSSE 15.5 17.5----29.96- 82.9 82.8 77.2---
2024-05-27 12:30 amSSE 15.5 17.5----29.97- 82.8 82.8 77.0---
2024-05-27 12:20 amSSE 15.5 17.5 2.0 33.3SSE29.96- 82.8 82.8 77.5---
2024-05-27 12:10 amSSE 13.6 17.5 2.0-3.3SSE29.96- 82.9 82.8 77.7---
2024-05-27 12:00 amSSE 13.6 17.5----29.97+0.02 82.9 82.6 77.2---
2024-05-26 11:50 pmSSE 13.6 15.5 2.0 33.4SSE29.98- 82.9 82.4 76.8---
2024-05-26 11:40 pmSSE 13.6 15.5 2.0-3.4SSE29.98- 82.9 82.2 76.5---
2024-05-26 11:30 pmSSE 13.6 15.5----29.97- 82.9 82.2 76.5---
2024-05-26 11:20 pmSSE 13.6 17.5 2.0 33.3 SE29.97- 82.9 82.2 76.6---
2024-05-26 11:10 pmSSE 13.6 15.5 2.0-3.3 SE29.97- 82.9 82.2 76.8---
2024-05-26 11:00 pmSSE 13.6 17.5----29.97+0.02 82.9 82.2 76.8---
2024-05-26 10:50 pmSSE 13.6 17.5 1.6 73.4 E29.96- 82.9- 76.6---
2024-05-26 10:40 pmSSE 13.6 15.5----29.96- 82.9 82.2 76.5---
2024-05-26 10:30 pmSSE 13.6 15.5----29.97- 83.1 82.2 76.6---
2024-05-26 10:20 pmSSE 13.6 15.5 1.6 83.2 E29.97- 83.1 82.2 76.5---
2024-05-26 10:10 pmSSE 13.6 17.5 1.6-3.2 E29.96- 83.1 82.0 76.3---
2024-05-26 10:00 pmSSE 13.6 15.5----29.96+0.03 83.1 82.0 76.5---
2024-05-26 09:50 pmSSE 13.6 15.5 1.6 83.2ENE29.96- 82.9 82.0 76.5---
2024-05-26 09:40 pmSSE 13.6 17.5----29.96- 83.1 82.0 76.6---
2024-05-26 09:30 pmSSE 13.6 15.5----29.96- 83.1 81.9 76.5---
2024-05-26 09:20 pmSSE 13.6 15.5 1.6 73.2 E29.95- 83.1 81.9 76.3---
2024-05-26 09:10 pmSSE 13.6 15.5 1.6-3.2 E29.95- 83.1 81.9 75.9---
2024-05-26 09:00 pmSSE 13.6 15.5----29.95+0.02 83.1 81.9 75.9---
2024-05-26 08:50 pmSSE 13.6 15.5 1.3 73.6ESE29.95- 83.1 81.9 76.3---
2024-05-26 08:40 pmSSE 13.6 15.5----29.95- 83.1 82.0 75.9---
2024-05-26 08:30 pmSSE 13.6 15.5----29.95- 83.1 82.0 75.9---
2024-05-26 08:20 pmSSE 11.7 15.5 1.3 84.2ESE29.95- 83.3 82.2 76.1---
2024-05-26 08:10 pmSSE 11.7 13.6 1.3-4.2ESE29.95- 83.3 82.4 76.1---
2024-05-26 08:00 pmSSE 11.7 13.6----29.94+0.00 83.5 82.6 76.1---
2024-05-26 07:50 pm SE 11.7 13.6 1.3 84.9ESE29.94- 83.5 82.9 75.9---
2024-05-26 07:40 pm SE 11.7 13.6----29.93- 83.5 83.3 76.1---
2024-05-26 07:20 pm SE 11.7 13.6 1.3 85.8 E29.93- 83.5 83.7 76.1---
2024-05-26 07:10 pm SE 9.7 11.7 1.3-5.8 E29.93- 83.7 83.7 76.8---
2024-05-26 07:00 pm SE 9.7 11.7----29.93-0.01 83.5 83.5 76.3---
2024-05-26 06:50 pm SE 9.7 11.7 1.3 85.8 E29.93- 83.5 83.3 76.5---
2024-05-26 06:40 pm SE 7.8 11.7----29.94- 83.5 83.1 76.3---
2024-05-26 06:30 pm SE 7.8 9.7----29.94- 83.3 82.4 76.1---
2024-05-26 06:20 pm SE 9.7 9.7 1.3 86.0 E29.93- 83.3 82.6 76.1---
2024-05-26 06:10 pm SE 9.7 11.7 1.3-6.0 E29.93- 83.3 82.4 76.1---
2024-05-26 06:00 pm SE 9.7 11.7----29.93-0.03 83.1 82.6 75.7---
2024-05-26 05:50 pm SE 9.7 11.7 1.3 86.0 E29.93- 83.1 82.2 75.7---

Detailed Wave Summary
for 41009 as of (6:10 pm EDT)
2210 GMT on 05/27/2024:

These wave data are displayed in rounded times.

     

Click on the graph icon in the table below to see a time series plot of the last five days of that observation.

5-day plot - Significant Wave Height Significant Wave Height (WVHT): 1.3 ft
5-day plot - Swell Height Swell Height (SwH): 1.0 ft
5-day plot - Swell Period Swell Period (SwP): 8.3 sec
5-day plot - Swell Direction Swell Direction (SwD): E
5-day plot - Wind Wave Height Wind Wave Height (WWH): 0.7 ft
5-day plot - Wind Wave Period Wind Wave Period (WWP): 2.9 sec
5-day plot - Wind Wave Direction Wind Wave Direction (WWD):NNW
5-day plot - Average Wave Period Average Wave Period (APD): 4.3 sec
Previous observations
TIME
(EDT)
5-day plot - Wave Height
WVHT
ft
5-day plot - Swell Height
SwH
ft
5-day plot - Swell Period
SwP
sec
5-day plot - Swell Direction
SwD
 
5-day plot - Wind Wave Height
WWH
ft
5-day plot - Wind Wave Period
WWP
sec
5-day plot - Wind Wave Direction
WWD
 
5-day plot - Wave Steepness
STEEPNESS
 
5-day plot - Average Wave Period
APD
sec
2024-05-27 05:40 pm 1.3 1.0 8.3 E 0.7 3.0 NNW N/A 4.4
2024-05-27 05:10 pm 1.3 1.0 8.3 E 0.7 2.9 NNW N/A 4.1
2024-05-27 04:40 pm 1.3 1.0 7.7ENE 0.7 2.9 NNW N/A 4.1
2024-05-27 04:10 pm 1.3 1.0 8.3 E 0.7 2.7 NW N/A 4.1
2024-05-27 03:40 pm 1.3 1.0 8.3ENE 0.7 2.9 NNE N/A 4.2
2024-05-27 03:10 pm 1.3 1.0 8.3ESE 1.0 2.7 NW N/A 4.0
2024-05-27 02:40 pm 1.3 1.0 8.3 E 1.0 3.7 SE N/A 3.8
2024-05-27 02:10 pm 1.6 1.0 8.3ESE 1.0 2.7 NW N/A 3.8
2024-05-27 01:40 pm 1.3 1.0 8.3 E 1.0 3.6 SE N/A 3.6
2024-05-27 01:10 pm 1.3 1.0 8.3ENE 1.0 2.4 WNW N/A 3.7
2024-05-27 12:40 pm 1.3 1.0 9.1 E 1.0 3.4 SE N/A 3.5
2024-05-27 12:10 pm 1.3 1.0 7.7 E 1.0 2.2 WNW N/A 3.6
2024-05-27 11:40 am 1.3 1.0 8.3 E 1.0 3.3 SE N/A 4.1
2024-05-27 11:10 am 1.3 1.0 9.1 E 1.0 3.6 SE N/A 4.2
2024-05-27 10:40 am 1.6 1.0 7.7 E 1.0 3.4 SE N/A 4.3
2024-05-27 10:10 am 1.6 1.0 8.3 E 1.0 3.2 SE N/A 4.0
2024-05-27 09:40 am 1.6 1.0 7.7 E 1.3 3.1 ESE N/A 3.9
2024-05-27 09:10 am 1.6 1.3 8.3ENE 1.3 3.2 ESE N/A 4.0
2024-05-27 08:40 am 1.6 1.0 9.1 SE 1.3 3.4 ESE N/A 3.9
2024-05-27 08:10 am 1.6 1.3 7.7 E 1.3 3.4 ESE N/A 3.9
2024-05-27 07:40 am 1.6 1.3 8.3ENE 1.3 3.3 SE N/A 4.0
2024-05-27 07:10 am 1.6 1.3 13.8 NW 1.3 3.2 SE N/A 4.1
2024-05-27 06:40 am 1.6 1.3 8.3ENE 1.3 3.3 SE N/A 4.0
2024-05-27 06:10 am 2.0 1.3 7.7 E 1.3 3.4 SE N/A 4.0
2024-05-27 05:40 am 2.0 1.3 7.7 E 1.3 3.4 SE N/A 4.0
2024-05-27 05:10 am 2.0 1.3 8.3 E 1.3 3.6 SE N/A 3.9
2024-05-27 04:40 am 2.0 1.3 7.7 E 1.3 3.6 SE N/A 4.0
2024-05-27 04:10 am 2.0 1.3 8.3 E 1.6 3.6 SE N/A 3.9
2024-05-27 03:40 am 2.0 1.3 8.3ENE 1.6 3.6 SSE N/A 3.8
2024-05-27 03:10 am 2.3 1.3 7.7 E 1.6 3.3 SE N/A 3.8
2024-05-27 02:40 am 2.3 1.0 8.3 E 2.0 3.4 SE N/A 3.5
2024-05-27 02:10 am 2.3 1.3 7.7 E 2.0 3.4 SSE N/A 3.5
2024-05-27 01:40 am 2.3 1.3 8.3ESE 1.6 3.3 SSE N/A 3.5
2024-05-27 01:10 am 2.0 1.0 7.7 E 1.6 3.1 SE N/A 3.3
2024-05-27 12:40 am 2.0 1.0 7.1 E 1.6 3.1 SE N/A 3.3
2024-05-27 12:10 am 2.0 1.0 6.7ESE 1.6 3.2 SSE N/A 3.3
2024-05-26 11:40 pm 2.0 1.0 7.7 E 1.6 3.2 SSE N/A 3.4
2024-05-26 11:10 pm 2.0 1.0 8.3 E 1.6 2.9 SE N/A 3.3
2024-05-26 10:40 pm 1.6 1.3 7.1 E 1.3 2.9 SSE N/A 3.4
2024-05-26 10:10 pm 1.6 1.0 7.7 E 1.3 2.9 SSE N/A 3.2
2024-05-26 09:40 pm 1.6 1.0 7.7ENE 1.3 2.5 SE N/A 3.2
2024-05-26 09:10 pm 1.6 1.0 7.1 E 1.3 2.5 SE N/A 3.2
2024-05-26 08:40 pm 1.3 1.0 7.1ESE 1.0 2.2 SE N/A 3.6
2024-05-26 08:10 pm 1.3 1.3 7.7ESE 0.7 2.1 SE N/A 4.2
2024-05-26 07:40 pm 1.3 1.0 7.7ESE 0.7 2.1 SE N/A 4.9
2024-05-26 07:10 pm 1.3 1.3 7.7 E 0.7 5.6 E N/A 5.8
2024-05-26 06:40 pm 1.3 1.3 7.7 E 0.7 4.2 NE N/A 5.8
2024-05-26 06:10 pm 1.3 1.3 8.3 E 0.7 4.3 NE N/A 6.0

Plot of wave energy versus frequency (and period)